User: anonymous   Login
Location: NJAA Observatory
(40.6819°N, 74.8979°W)
Time: 01:46:25
(UTC-04:00)
Language:

Cosmos 1328 Rocket - Orbit

View from above orbital plane
View from above orbital plane
View from above satellite
View from above satellite

Ground track
Ground track

The orbit data is extracted from the following two-line orbital elements,

1 12988U 81117B   17228.84063159  .00000086  00000-0  73438-5 0  9996
2 12988  82.5251  16.4545 0018357  12.2505 144.0751 14.84661280928817
Epoch (UTC): 16 August 2017 20:10:30
Eccentricity: 0.0018357
inclination: 82.5251°
perigee height: 602 km
apogee height: 627 km
right ascension of ascending node: 16.4545°
argument of perigee: 12.2505°
revolutions per day: 14.84661280
mean anomaly at epoch: 144.0751°
orbit number at epoch: 92881

The dashed part of the orbit path shows where the satellite is in the earth's shadow,  

DLR